When you browse on this site, cookies collect data to enhance your experience and personalize the content and advertising you see.
Visit our Privacy Policy to learn more. By continuing to use the site, you agree to this use of cookies and data.
  • In Hungary
  • List of Countries
  • For 7 days
  • Water Temperature
  • Satellite Maps
  • Weather Map
  • News
  • Weather Widgets
  • user-avatar
    Login

    Hourly Weather Tomaszow

    Today, 22 May, Wednesday

    Time Temperature Precipitation Wind Pressure Humidity
    00:00 +12°C° 0 mm 3 mps 729 mmHg 96%
    01:00 +14°C° 0 mm 2 mps 728 mmHg 97%
    02:00 +14°C° 0.1 mm 2 mps 728 mmHg 97%
    03:00 +14°C° 0.1 mm 2 mps 729 mmHg 97%
    04:00 +14°C° 0.1 mm 2 mps 729 mmHg 97%
    05:00 +14°C° 0.1 mm 2 mps 729 mmHg 94%
    06:00 +14°C° 0.1 mm 3 mps 729 mmHg 92%
    07:00 +15°C° 0 mm 2 mps 729 mmHg 89%
    08:00 +16°C° 0.5 mm 3 mps 729 mmHg 86%
    09:00 +17°C° 0.5 mm 3 mps 730 mmHg 83%
    10:00 +17°C° 0.5 mm 4 mps 730 mmHg 81%
    11:00 +18°C° 0.8 mm 4 mps 730 mmHg 79%
    12:00 +18°C° 0.8 mm 4 mps 730 mmHg 77%
    13:00 +19°C° 0.8 mm 3 mps 730 mmHg 75%
    14:00 +19°C° 0.6 mm 3 mps 730 mmHg 76%
    15:00 +19°C° 0.6 mm 3 mps 730 mmHg 76%
    16:00 +19°C° 0.6 mm 3 mps 730 mmHg 77%
    17:00 +18°C° 0.2 mm 3 mps 730 mmHg 82%
    18:00 +16°C° 0.2 mm 2 mps 730 mmHg 86%
    19:00 +15°C° 0.2 mm 2 mps 730 mmHg 91%
    20:00 +14°C° 0 mm 2 mps 731 mmHg 93%
    21:00 +14°C° 0 mm 1 mps 731 mmHg 94%
    22:00 +13°C° 0 mm 1 mps 731 mmHg 96%
    23:00 +12°C° 0 mm 1 mps 732 mmHg 96%

    Tomorrow, 23 May, Thursday

    Time Temperature Precipitation Wind Pressure Humidity
    00:00 +12°C° 0 mm 1 mps 732 mmHg 97%
    01:00 +12°C° 0 mm 2 mps 732 mmHg 97%
    02:00 +12°C° 0 mm 2 mps 732 mmHg 97%
    03:00 +10°C° 0 mm 2 mps 733 mmHg 97%
    04:00 +10°C° 0 mm 2 mps 733 mmHg 97%
    05:00 +13°C° 0 mm 2 mps 733 mmHg 94%
    06:00 +14°C° 0 mm 2 mps 734 mmHg 92%
    07:00 +16°C° 0 mm 3 mps 734 mmHg 89%
    08:00 +17°C° 0.3 mm 3 mps 734 mmHg 85%
    09:00 +18°C° 0.3 mm 3 mps 735 mmHg 82%
    10:00 +19°C° 0.3 mm 4 mps 735 mmHg 78%
    11:00 +19°C° 1.3 mm 4 mps 735 mmHg 79%
    12:00 +19°C° 1.3 mm 5 mps 735 mmHg 79%
    13:00 +19°C° 1.3 mm 5 mps 735 mmHg 79%
    14:00 +19°C° 1.4 mm 5 mps 735 mmHg 82%
    15:00 +17°C° 1.4 mm 6 mps 735 mmHg 84%
    16:00 +17°C° 1.4 mm 6 mps 735 mmHg 87%
    17:00 +16°C° 0.9 mm 6 mps 735 mmHg 89%
    18:00 +15°C° 0.9 mm 6 mps 735 mmHg 91%
    19:00 +15°C° 0.9 mm 6 mps 736 mmHg 92%
    20:00 +14°C° 0.6 mm 6 mps 736 mmHg 93%
    21:00 +14°C° 0.6 mm 6 mps 736 mmHg 94%
    22:00 +14°C° 0.6 mm 6 mps 736 mmHg 95%
    23:00 +14°C° 0.9 mm 6 mps 736 mmHg 95%

    Day after tomorrow, 24 May, Friday

    Time Temperature Precipitation Wind Pressure Humidity
    00:00 +13°C° 0.9 mm 6 mps 736 mmHg 95%
    01:00 +11°C° 0.9 mm 6 mps 736 mmHg 95%
    02:00 +12°C° 0.5 mm 5 mps 736 mmHg 94%
    03:00 +10°C° 0.5 mm 5 mps 736 mmHg 93%
    04:00 +10°C° 0.5 mm 5 mps 736 mmHg 93%
    05:00 +10°C° 0.1 mm 5 mps 736 mmHg 91%
    06:00 +11°C° 0.1 mm 4 mps 737 mmHg 88%
    07:00 +12°C° 0.1 mm 4 mps 737 mmHg 86%
    08:00 +13°C° 0 mm 4 mps 737 mmHg 82%
    09:00 +14°C° 0 mm 4 mps 737 mmHg 78%
    10:00 +16°C° 0 mm 3 mps 737 mmHg 73%
    11:00 +17°C° 0 mm 3 mps 737 mmHg 71%
    12:00 +18°C° 0 mm 3 mps 737 mmHg 69%
    13:00 +19°C° 0 mm 3 mps 737 mmHg 66%
    14:00 +19°C° 0 mm 3 mps 736 mmHg 67%
    15:00 +19°C° 0 mm 3 mps 736 mmHg 68%
    16:00 +19°C° 0 mm 3 mps 736 mmHg 69%
    17:00 +18°C° 0 mm 3 mps 736 mmHg 72%
    18:00 +18°C° 0 mm 3 mps 736 mmHg 75%
    19:00 +17°C° 0 mm 2 mps 735 mmHg 77%
    20:00 +16°C° 0 mm 3 mps 736 mmHg 78%
    21:00 +16°C° 0 mm 3 mps 736 mmHg 80%
    22:00 +14°C° 0 mm 3 mps 736 mmHg 81%
    23:00 +13°C° 0 mm 3 mps 736 mmHg 83%

    25 May, Saturday

    Time Temperature Precipitation Wind Pressure Humidity
    00:00 +14°C° 0 mm 2 mps 736 mmHg 85%
    01:00 +13°C° 0 mm 2 mps 736 mmHg 87%
    02:00 +12°C° 0 mm 2 mps 736 mmHg 89%
    03:00 +12°C° 0 mm 2 mps 736 mmHg 91%
    04:00 +10°C° 0 mm 2 mps 736 mmHg 93%
    05:00 +13°C° 0 mm 2 mps 736 mmHg 87%
    06:00 +15°C° 0 mm 2 mps 736 mmHg 80%
    07:00 +17°C° 0 mm 2 mps 736 mmHg 74%
    08:00 +18°C° 0.1 mm 2 mps 736 mmHg 70%
    09:00 +19°C° 0.1 mm 2 mps 736 mmHg 65%
    10:00 +20°C° 0.1 mm 2 mps 736 mmHg 61%
    11:00 +20°C° 0.2 mm 3 mps 736 mmHg 58%
    12:00 +21°C° 0.2 mm 3 mps 736 mmHg 56%
    13:00 +21°C° 0.2 mm 3 mps 735 mmHg 54%
    14:00 +21°C° 0.1 mm 4 mps 735 mmHg 57%
    15:00 +21°C° 0.1 mm 4 mps 735 mmHg 61%
    16:00 +21°C° 0.1 mm 4 mps 735 mmHg 64%
    17:00 +19°C° 0.1 mm 3 mps 735 mmHg 70%
    18:00 +18°C° 0.1 mm 2 mps 735 mmHg 76%
    19:00 +16°C° 0.1 mm 2 mps 735 mmHg 82%
    20:00 +15°C° 0 mm 2 mps 735 mmHg 85%
    21:00 +14°C° 0 mm 2 mps 735 mmHg 88%
    22:00 +13°C° 0 mm 2 mps 736 mmHg 91%
    23:00 +13°C° 0 mm 2 mps 736 mmHg 92%

    26 May, Sunday

    Time Temperature Precipitation Wind Pressure Humidity
    00:00 +12°C° 0 mm 2 mps 736 mmHg 92%
    01:00 +12°C° 0 mm 2 mps 736 mmHg 93%
    02:00 +12°C° 0 mm 2 mps 736 mmHg 93%
    03:00 +10°C° 0 mm 2 mps 736 mmHg 94%
    04:00 +10°C° 0 mm 2 mps 736 mmHg 94%
    05:00 +12°C° 0 mm 2 mps 736 mmHg 88%
    06:00 +14°C° 0 mm 2 mps 736 mmHg 82%
    07:00 +15°C° 0 mm 2 mps 736 mmHg 76%
    08:00 +16°C° 0 mm 2 mps 736 mmHg 72%
    09:00 +18°C° 0 mm 3 mps 736 mmHg 67%
    10:00 +19°C° 0 mm 4 mps 735 mmHg 62%
    11:00 +19°C° 0.1 mm 5 mps 735 mmHg 62%
    12:00 +19°C° 0.1 mm 5 mps 735 mmHg 61%
    13:00 +20°C° 0.1 mm 6 mps 735 mmHg 61%
    14:00 +19°C° 0 mm 6 mps 735 mmHg 60%
    15:00 +17°C° 0 mm 6 mps 734 mmHg 59%
    16:00 +17°C° 0 mm 6 mps 734 mmHg 58%
    17:00 +15°C° 0 mm 5 mps 734 mmHg 62%
    18:00 +14°C° 0 mm 4 mps 735 mmHg 65%
    19:00 +12°C° 0 mm 3 mps 735 mmHg 68%
    20:00 +11°C° 0 mm 3 mps 735 mmHg 72%
    21:00 +10°C° 0 mm 3 mps 736 mmHg 76%
    22:00 +9°C° 0 mm 3 mps 736 mmHg 80%
    23:00 +9°C° 0 mm 2 mps 736 mmHg 83%

    27 May, Monday

    Time Temperature Precipitation Wind Pressure Humidity
    00:00 +8°C° 0 mm 2 mps 736 mmHg 87%
    01:00 +7°C° 0 mm 2 mps 737 mmHg 90%
    02:00 +7°C° 0 mm 2 mps 737 mmHg 91%
    03:00 +7°C° 0 mm 2 mps 737 mmHg 92%
    04:00 +6°C° 0 mm 2 mps 737 mmHg 93%
    05:00 +8°C° 0 mm 2 mps 737 mmHg 86%
    06:00 +10°C° 0 mm 2 mps 737 mmHg 79%
    07:00 +12°C° 0 mm 3 mps 737 mmHg 72%
    08:00 +13°C° 0 mm 3 mps 737 mmHg 68%
    09:00 +16°C° 0 mm 3 mps 737 mmHg 63%
    10:00 +17°C° 0 mm 4 mps 737 mmHg 59%
    11:00 +18°C° 0 mm 4 mps 737 mmHg 56%
    12:00 +19°C° 0 mm 3 mps 737 mmHg 54%
    13:00 +20°C° 0 mm 3 mps 736 mmHg 52%
    14:00 +20°C° 0 mm 2 mps 736 mmHg 52%
    15:00 +20°C° 0 mm 2 mps 735 mmHg 53%
    16:00 +21°C° 0 mm 1 mps 735 mmHg 54%
    17:00 +20°C° 0 mm 1 mps 734 mmHg 61%
    18:00 +19°C° 0 mm 1 mps 734 mmHg 68%
    19:00 +17°C° 0 mm 2 mps 734 mmHg 74%
    20:00 +16°C° 0 mm 2 mps 734 mmHg 76%
    21:00 +16°C° 0 mm 2 mps 733 mmHg 77%
    22:00 +15°C° 0 mm 2 mps 733 mmHg 79%
    23:00 +15°C° 0.1 mm 2 mps 733 mmHg 81%
    Show more